Location: Newark
(49.8969°N, 3.3422°E)
Time: 14:36:05
(UTC+00:00)

deb Explorer IX - Pass Details

Date: 22 January 2020
Orbit: 549 x 1099 km, 38.8° (Epoch: 28 February)

Event Time Altitude Azimuth Distance (km) Brightness Sun altitude
Rises 02:11:14 0° 259° (W) 3,896 - -50.0°
Reaches altitude 10° 02:14:24 10° 250° (WSW) 2,910 - -49.6°
Maximum altitude 02:20:22 29° 193° (SSW) 1,765 - -48.8°
Drops below altitude 10° 02:25:51 10° 136° (SE) 2,667 - -48.0°
Sets 02:28:38 0° 125° (SE) 3,523 - -47.7°
